User: anonymous   Login
Location: SAPM � Hemmingford
(45.0500°N, 73.5833°W)
Time: 09:00:52
(UTC-04:00)
Language:

Cosmos 1674 Rocket - Orbit

View from above orbital plane
View from above orbital plane
View from above satellite
View from above satellite

Ground track
Ground track

The orbit data is extracted from the following two-line orbital elements,

1 15945U 85069B   15239.51744008  .00000194  00000-0  20562-4 0  9994
2 15945 082.5271 030.7316 0018479 301.3976 058.5431 14.83740897623209
Epoch (UTC): 27 August 2015 12:25:06
Eccentricity: 0.0018479
inclination: 82.5271°
perigee height: 604 km
apogee height: 630 km
right ascension of ascending node: 30.7316°
argument of perigee: 301.3976°
revolutions per day: 14.83740897
mean anomaly at epoch: 58.5431°
orbit number at epoch: 62320

The dashed part of the orbit path shows where the satellite is in the earth's shadow,  

DLR